TimeCDT,TemperatureF,Dew PointF,Humidity,Sea Level PressureIn,VisibilityMPH,Wind Direction,Wind SpeedMPH,Gust SpeedMPH,PrecipitationIn,Events,Conditions,WindDirDegrees,DateUTC
12:15 AM,69.3,64.8,86,30.08,7.0,South,3.5,-,N/A,,Clear,170,2013-08-21 05:15:00
12:35 AM,69.4,64.6,84,30.08,7.0,SSE,3.5,-,N/A,,Clear,160,2013-08-21 05:35:00
12:55 AM,68.9,64.6,86,30.08,7.0,Calm,Calm,-,N/A,,Clear,0,2013-08-21 05:55:00
1:15 AM,68.2,64.4,88,30.09,7.0,South,4.6,-,N/A,,Clear,180,2013-08-21 06:15:00
1:35 AM,68.5,64.6,87,30.09,7.0,SSW,3.5,-,N/A,,Clear,200,2013-08-21 06:35:00
1:55 AM,68.7,64.4,86,30.08,7.0,Calm,Calm,-,N/A,,Clear,0,2013-08-21 06:55:00
2:15 AM,69.4,65.1,86,30.08,10.0,SSW,3.5,-,N/A,,Clear,210,2013-08-21 07:15:00
2:35 AM,70.3,65.3,84,30.08,10.0,SSW,3.5,-,N/A,,Clear,200,2013-08-21 07:35:00
2:55 AM,68.5,64.4,87,30.08,7.0,Calm,Calm,-,N/A,,Clear,0,2013-08-21 07:55:00
3:15 AM,68.0,64.4,88,30.08,7.0,SSW,3.5,-,N/A,,Clear,200,2013-08-21 08:15:00
3:35 AM,68.2,64.4,88,30.08,7.0,SSW,3.5,-,N/A,,Clear,200,2013-08-21 08:35:00
3:55 AM,67.1,64.2,90,30.08,4.0,Calm,Calm,-,N/A,,Clear,0,2013-08-21 08:55:00
4:15 AM,66.4,63.5,90,30.08,4.0,Calm,Calm,-,N/A,,Clear,0,2013-08-21 09:15:00
4:35 AM,65.5,63.1,92,30.08,1.8,Calm,Calm,-,N/A,,Mist,0,2013-08-21 09:35:00
4:55 AM,66.0,62.8,89,30.08,7.0,Calm,Calm,-,N/A,,Clear,0,2013-08-21 09:55:00
5:15 AM,65.1,62.1,90,30.09,7.0,South,3.5,-,N/A,,Clear,190,2013-08-21 10:15:00
5:35 AM,64.6,62.2,92,30.09,1.8,SSW,3.5,-,N/A,,Mist,200,2013-08-21 10:35:00
5:55 AM,65.8,62.8,90,30.10,5.0,South,3.5,-,N/A,,Clear,190,2013-08-21 10:55:00
6:15 AM,65.7,63.0,91,30.10,7.0,Calm,Calm,-,N/A,,Clear,0,2013-08-21 11:15:00
6:35 AM,64.8,61.7,90,30.11,4.0,Calm,Calm,-,N/A,,Clear,0,2013-08-21 11:35:00
6:55 AM,65.3,62.4,90,30.11,5.0,Calm,Calm,-,N/A,,Clear,0,2013-08-21 11:55:00
7:15 AM,66.6,63.5,90,30.11,5.0,Calm,Calm,-,N/A,,Clear,0,2013-08-21 12:15:00
7:35 AM,68.5,65.5,90,30.12,5.0,Calm,Calm,-,N/A,,Clear,0,2013-08-21 12:35:00
7:55 AM,71.8,66.2,83,30.12,7.0,Calm,Calm,-,N/A,,Clear,0,2013-08-21 12:55:00
8:15 AM,73.9,67.3,80,30.12,7.0,SSW,3.5,-,N/A,,Clear,200,2013-08-21 13:15:00
8:35 AM,76.1,68.0,76,30.13,10.0,SSW,3.5,-,N/A,,Clear,200,2013-08-21 13:35:00
8:55 AM,77.2,68.4,74,30.13,10.0,Calm,Calm,-,N/A,,Clear,0,2013-08-21 13:55:00
9:15 AM,78.8,67.5,68,30.13,10.0,SW,4.6,-,N/A,,Clear,230,2013-08-21 14:15:00
9:35 AM,80.1,68.2,67,30.13,10.0,South,3.5,-,N/A,,Clear,190,2013-08-21 14:35:00
9:55 AM,81.5,68.4,64,30.13,10.0,SW,3.5,-,N/A,,Clear,220,2013-08-21 14:55:00
10:15 AM,82.0,67.5,61,30.14,10.0,SW,5.8,-,N/A,,Clear,220,2013-08-21 15:15:00
10:35 AM,82.8,67.3,59,30.13,10.0,SSW,6.9,-,N/A,,Clear,200,2013-08-21 15:35:00
10:55 AM,83.3,65.5,55,30.13,10.0,SW,5.8,-,N/A,,Clear,230,2013-08-21 15:55:00
11:15 AM,84.6,66.7,55,30.13,10.0,SSW,3.5,-,N/A,,Clear,200,2013-08-21 16:15:00
11:35 AM,84.7,66.4,54,30.13,10.0,SSW,5.8,-,N/A,,Clear,210,2013-08-21 16:35:00
11:55 AM,85.3,67.3,55,30.12,10.0,South,5.8,-,N/A,,Clear,190,2013-08-21 16:55:00
12:15 PM,85.5,66.4,53,30.12,10.0,South,8.1,-,N/A,,Clear,180,2013-08-21 17:15:00
12:35 PM,86.2,66.0,51,30.12,10.0,South,8.1,-,N/A,,Clear,190,2013-08-21 17:35:00
12:55 PM,86.9,65.5,49,30.11,10.0,SW,9.2,-,N/A,,Scattered Clouds,220,2013-08-21 17:55:00
1:15 PM,86.5,64.4,47,30.11,10.0,SW,5.8,-,N/A,,Clear,220,2013-08-21 18:15:00
1:35 PM,86.9,64.2,47,30.11,10.0,SSW,8.1,-,N/A,,Clear,210,2013-08-21 18:35:00
1:55 PM,87.4,63.3,44,30.10,10.0,SSW,6.9,-,N/A,,Scattered Clouds,210,2013-08-21 18:55:00
2:15 PM,87.6,64.8,46,30.09,10.0,South,3.5,-,N/A,,Clear,170,2013-08-21 19:15:00
2:35 PM,88.0,64.0,45,30.09,10.0,SW,5.8,-,N/A,,Clear,220,2013-08-21 19:35:00
2:55 PM,87.8,63.9,45,30.09,10.0,SSW,6.9,-,N/A,,Scattered Clouds,200,2013-08-21 19:55:00
3:15 PM,87.1,64.6,47,30.09,10.0,SSW,4.6,-,N/A,,Scattered Clouds,210,2013-08-21 20:15:00
3:35 PM,87.8,63.7,44,30.08,10.0,SSW,3.5,-,N/A,,Scattered Clouds,200,2013-08-21 20:35:00
3:55 PM,88.3,62.6,42,30.08,10.0,SW,5.8,-,N/A,,Scattered Clouds,220,2013-08-21 20:55:00
4:15 PM,88.3,64.6,45,30.07,10.0,South,6.9,-,N/A,,Clear,180,2013-08-21 21:15:00
4:35 PM,88.2,63.9,44,30.07,10.0,South,3.5,-,N/A,,Clear,170,2013-08-21 21:35:00
4:55 PM,87.8,64.2,45,30.06,10.0,South,5.8,-,N/A,,Clear,190,2013-08-21 21:55:00
5:15 PM,86.9,64.4,47,30.06,10.0,South,3.5,-,N/A,,Clear,180,2013-08-21 22:15:00
5:35 PM,86.4,66.2,51,30.06,10.0,South,3.5,-,N/A,,Clear,170,2013-08-21 22:35:00
5:55 PM,85.5,68.0,56,30.06,10.0,Calm,Calm,-,N/A,,Clear,0,2013-08-21 22:55:00
6:15 PM,84.4,68.7,59,30.05,10.0,Calm,Calm,-,N/A,,Clear,0,2013-08-21 23:15:00
6:35 PM,83.7,69.6,62,30.05,10.0,Calm,Calm,-,N/A,,Clear,0,2013-08-21 23:35:00
6:55 PM,82.6,70.5,67,30.04,10.0,SSE,3.5,-,N/A,,Clear,160,2013-08-21 23:55:00
7:15 PM,80.8,69.8,69,30.04,10.0,Calm,Calm,-,N/A,,Clear,0,2013-08-22 00:15:00
7:35 PM,79.5,68.5,69,30.04,10.0,Calm,Calm,-,N/A,,Clear,0,2013-08-22 00:35:00
7:55 PM,78.1,67.6,70,30.04,10.0,SSE,3.5,-,N/A,,Clear,160,2013-08-22 00:55:00
8:15 PM,77.0,67.5,72,30.04,10.0,Calm,Calm,-,N/A,,Clear,0,2013-08-22 01:15:00
8:35 PM,75.4,68.0,78,30.05,10.0,Calm,Calm,-,N/A,,Clear,0,2013-08-22 01:35:00
8:55 PM,75.4,67.5,76,30.06,10.0,Calm,Calm,-,N/A,,Clear,0,2013-08-22 01:55:00
9:15 PM,74.3,67.5,79,30.07,10.0,Calm,Calm,-,N/A,,Clear,0,2013-08-22 02:15:00
9:35 PM,73.2,67.5,82,30.07,10.0,Calm,Calm,-,N/A,,Clear,0,2013-08-22 02:35:00
9:55 PM,72.1,67.1,84,30.08,10.0,Calm,Calm,-,N/A,,Clear,0,2013-08-22 02:55:00
10:15 PM,72.0,67.1,85,30.08,10.0,Calm,Calm,-,N/A,,Clear,0,2013-08-22 03:15:00
10:35 PM,72.7,67.1,83,30.08,7.0,Calm,Calm,-,N/A,,Clear,0,2013-08-22 03:35:00
10:55 PM,72.3,67.1,84,30.09,7.0,Calm,Calm,-,N/A,,Clear,0,2013-08-22 03:55:00
11:15 PM,72.0,66.6,83,30.09,10.0,Calm,Calm,-,N/A,,Clear,0,2013-08-22 04:15:00
11:35 PM,70.0,65.8,87,30.09,7.0,Calm,Calm,-,N/A,,Clear,0,2013-08-22 04:35:00
11:55 PM,69.1,65.8,89,30.09,7.0,Calm,Calm,-,N/A,,Clear,0,2013-08-22 04:55:00